Location: Hohenfelde
(53.8441°N, 9.6220°E)
Time: 12:34:07
(UTC+00:00)

Cosmos 407 Rocket - Pass Details

Date: 14 July 2020
Orbit: 744 x 786 km, 74.0° (Epoch: 13 August)

Event Time Altitude Azimuth Distance (km) Brightness Sun altitude
Exits shadow 00:55:11 15° 180° (S) 2,019 5.1 -12.2°
Maximum altitude 00:59:28 52° 108° (ESE) 979 4.1 -12.0°
Drops below altitude 10° 01:04:39 10° 34° (NNE) 2,357 7.5 -11.7°
Sets 01:07:05 0° 29° (NNE) 3,288 8.9 -11.5°
